sat.trackr.live / text

‹ back to catalog

STARLINK-5926

NORAD 55944 · 2023-037AG

PAYLOAD ACTIVE UNKNOWN

§ Identity

Operator
Country
US
Launch date
2023-03-17
Launch site
AFWTR
Launch vehicle
Mass (kg)
RCS (m²)

Purposes: comms

External: N2YO · Heavens-Above · Gunter

§ Orbital elements

Epoch: 2026-09-20T22:00:03.000096Z

Period
95.91 min
Inclination
70.0014°
Eccentricity
0.0001814
Mean motion
15.01462142 rev/d
Perigee alt
561.1 km
Apogee alt
563.6 km
Semi-major
6,940.5 km
B*
2.0315e-3
RAAN
152.0753°
Arg perigee
321.9829°
Mean anomaly
160.2319°
Rev number
576

§ Raw data

STARLINK-59261 55944U 23037AG  26263.91670139  .00026303  00000+0  20315-2 0  99932 55944  70.0014 152.0753 0001814 321.9829 160.2319 15.01462142  5768

JSON: /api/v1/satellites/55944 · /tle

For live sub-satellite position, see the globe view (requires WebGL).

§ Visibility from observer

Set your observer location to see the next 7 days of passes ≥ 10°. The values pass through the URL so the page stays shareable.

No JS? Fill the form by hand. The geolocation button needs JavaScript.